Regional Weather Roundup
Issued by NWS

Home | Current Version | Previous Version | Text Only | Print | Product List | Glossary On
Versions: 1 2 3 4 5 6 7 8 9 10 11 12 13 14 15 16 17 18 19 20 21 22 23 24 25 26 27 28 29 30 31 32 33 34 35 36 37 38 39 40 41 42 43 44 45 46 47 48 49 50
000
ASUS43 KMPX 050701
RWRMN
WEATHER ROUNDUP FOR MINNESOTA
NATIONAL WEATHER SERVICE TWIN CITIES/CHANHASSEN MN
200 AM CDT WED AUG 05 2015


NOTE: "FAIR" INDICATES FEW OR NO CLOUDS BELOW 12,000 FEET WITH NO
SIGNIFICANT WEATHER AND/OR OBSTRUCTIONS TO VISIBILITY. N/A MEANS
CURRENT SKY AND/OR WEATHER CONDITIONS ARE NOT AVAILABLE.

MNZ060>063-068>070-050800-
   Twin Cities Metro

CITY           SKY/WX    TMP DP  RH WIND       PRES   REMARKS
TWIN CITIES    CLEAR     68  53  58 CALM      30.03S
ST PAUL        CLEAR     62  58  86 CALM      30.03S
CRYSTAL        CLEAR     63  56  78 CALM      30.02S
BLAINE         CLEAR     61  57  88 CALM      30.03S
LAKEVILLE      CLEAR     55  54  94 CALM      30.04S
EDEN PRAIRIE   CLEAR     64  55  72 S3        30.02F
SOUTH ST PAUL  CLEAR     65  55  70 CALM      30.03S
LAKE ELMO      FAIR      57  55  94 CALM      30.04F
$$
MNZ001>005-007-008-013>017-022>024-027-028-050800-
   Northwest Minnesota

CITY           SKY/WX    TMP DP  RH WIND       PRES   REMARKS
BEMIDJI        CLEAR     55  52  89 SE3       30.09S
HALLOCK        PTCLDY    55  52  88 CALM      30.05S
ROSEAU         CLEAR     52  46  82 NE3       30.07F
WARROAD        CLEAR     55  52  88 SE5       30.08F
THIEF RVR FALL CLEAR     54  48  82 E7        30.06F
CROOKSTON      PTCLDY    59  54  82 SE7       30.05S
FOSSTON        CLEAR     52  45  76 E3        30.08S
DETROIT LAKES  CLEAR     59  54  82 CALM      30.07S
MOORHEAD       CLEAR     57  52  82 CALM      30.04S
PARK RAPIDS    PTCLDY    61  53  75 E6        30.08R
MAHNOMEN       FAIR      56  53  89 E5        30.06S
$$
MNZ006-009>011-018-025>026-050800-
   North Central Minnesota

CITY           SKY/WX    TMP DP  RH WIND       PRES   REMARKS
BAUDETTE       CLEAR     51  49  92 E3        30.09S
FLAG ISLAND    CLEAR     64  54  68 S13       30.06F
INTL FALLS     CLEAR     43  41  93 CALM      30.10S
WASKISH        CLEAR     48  48 100 E3        30.09S
BIG FORK       CLEAR     43  43 100 CALM      30.10S
LONGVILLE      CLEAR     50  48  93 CALM      30.09R
GRAND RAPIDS   CLEAR     48  46  93 E3        30.09S
CRANE LAKE     CLEAR     45  45 100 CALM      30.12S
ORR            CLEAR     43  41  93 CALM      30.09R
COOK           CLEAR     45  43  93 CALM      30.11S
WALKER         FAIR      60  53  77 E3        30.08S
$$
MNZ012-019>021-037-050800-
   Northeast Minnesota

CITY           SKY/WX    TMP DP  RH WIND       PRES   REMARKS
DULUTH         CLEAR     53  48  83 E6        30.08F
ELY            CLOUDY    52  48  87 CALM      30.10S
HIBBING        CLEAR     42  41  96 CALM      30.09F
EVELETH        CLEAR     43  41  93 CALM      30.11S FOG
DULUTH HARBOR  CLEAR     54  50  87 CALM      30.09S
TWO HARBORS    PTCLDY    52  48  87 CALM      30.07F
SILVER BAY     CLEAR     46  45  93 CALM      30.08S
GRAND MARAIS     N/A     49  47  93 CALM      30.07S
G MARAIS ARPRT CLEAR     46  43  87 NW6       30.10S
$$
MNZ029>031-032-039>041-046>048-054>057-064-050800-
   West Central Minnesota

CITY           SKY/WX    TMP DP  RH WIND       PRES   REMARKS
FERGUS FALLS   CLEAR     61  55  82 E6        30.04S
WHEATON        CLEAR     54  50  87 SE3       30.05S
MORRIS         CLEAR     57  54  88 CALM      30.03F
ALEXANDRIA     CLEAR     60  54  80 E7        30.07S
ELBOW LAKE     FAIR      65  55  70 E7        30.04S
WADENA         CLEAR     55  54  94 CALM      30.07R
GLENWOOD       CLEAR     59  54  82 NE6       30.06S
APPLETON       CLEAR     59  54  82 CALM      30.03S
BENSON         CLEAR     54  52  94 CALM      30.04S
ORTONVILLE     CLEAR     61  54  77 CALM      30.03F
MADISON        PTCLDY    57  54  88 CALM      30.03S
WILLMAR        FAIR      57  55  94 CALM      30.06R
$$
MNZ033>034-036-042>043-049>051-058-059-050800-
   Central Minnesota

CITY           SKY/WX    TMP DP  RH WIND       PRES   REMARKS
ST CLOUD       CLEAR     59  54  83 NE3       30.04S
SAUK CENTRE    FAIR      55  53  95 CALM      30.06S
PAYNESVILLE    CLEAR     52  52 100 CALM      30.06R
AITKIN         CLEAR     50  45  81 CALM      30.06S
PINE RIVER     CLEAR     54  50  87 MISG      30.11R
BRAINERD       CLEAR     57  53  86 CALM      30.07R
STAPLES        CLEAR     55  52  88 CALM      30.07R
LONG PRAIRIE   FAIR      55  54  94 N3        30.07R
LITCHFIELD     CLEAR     61  61 100 CALM      30.05S
BUFFALO        CLEAR     59  55  87 CALM      30.04S
MAPLE LAKE     CLEAR     57  57 100 CALM      30.05S
$$
MNZ037-044-045-052-053-050800-
   East Central Minnesota

CITY           SKY/WX    TMP DP  RH WIND       PRES   REMARKS
PRINCETON      CLEAR     57  55  94 CALM      30.05S
MORA           CLEAR     55  52  88 CALM      30.07S
CAMBRIDGE      CLEAR     61  50  67 CALM      30.03S
RUSH CITY      MOCLDY    58  55  88 NE3       30.05F
MOOSE LAKE     CLEAR     54  50  87 NE5       30.06S
HINCKLEY       FAIR      55  54  94 NE3       30.06F
CLOQUET        CLEAR     52  46  82 CALM      30.09S
MCGREGOR       CLEAR     52  50  93 CALM      30.08S
$$
MNZ071>073-080-081-089-090-097-098-050800-
   Southwest Minnesota

CITY           SKY/WX    TMP DP  RH WIND       PRES   REMARKS
MONTEVIDEO     PTCLDY    55  52  88 CALM      30.05S
GRANITE FALLS  PTCLDY    56  53  91 CALM      30.05S
CANBY          MOCLDY    58  55  89 CALM      30.05S
MARSHALL       MOCLDY    57  52  82 SW3       30.05S
REDWOOD FALLS  MOCLDY    61  54  77 CALM      30.03F
OLIVIA         PTCLDY    57  52  82 CALM      30.04S
PIPESTONE      MOCLDY    61  55  82 E5        30.06S
WINDOM         MOCLDY    57  54  88 CALM      30.06R
WORTHINGTON    MOCLDY    61  54  77 E3        30.06F
JACKSON        MOCLDY    59  54  82 CALM      30.07S
SLAYTON        CLOUDY    59  56  89 CALM      30.07S
$$
MNZ065>067-074>077-082>085-091>093-050800-
   South Central Minnesota

CITY           SKY/WX    TMP DP  RH WIND       PRES   REMARKS
MANKATO        PTCLDY    61  52  72 S3        30.04F
NEW ULM        MOCLDY    59  54  82 CALM      30.04S
ST JAMES       MOCLDY    59  55  88 CALM      30.06S
FAIRMONT       MOCLDY    57  50  77 CALM      30.05S
GLENCOE        PTCLDY    58  55  90 SW3       30.03S
FARIBAULT      PTCLDY    57  55  94 CALM      30.05S
OWATONNA       PTCLDY    55  52  88 CALM      30.05S
WASECA         PTCLDY    55  52  88 CALM      30.06S
ALBERT LEA     MOCLDY    55  54  94 CALM      30.06S
$$
MNZ078>079-086>088-094>096-050800-
   Southeast Minnesota

CITY           SKY/WX    TMP DP  RH WIND       PRES   REMARKS
ROCHESTER      PTCLDY    56  53  90 SW7       30.07S
RED WING       CLEAR     57  55  94 N3        30.02S
STANTON        PTCLDY    56  53  89 CALM      30.03S
DODGE CENTER   PTCLDY    55  52  88 SW3       30.06S
WINONA         CLEAR     59  57  94 CALM      30.04S
AUSTIN         MOCLDY    55  54  94 CALM      30.05F
PRESTON        MOCLDY    59  52  77 CALM      30.06S
$$
ABBREVIATIONS USED IN REMARKS
   TC - TEMPERATURES IN CELSIUS
  WCI - WIND CHILL INDEX
   HX - HEAT INDEX
  VSB - VISIBILITY
$$



USA.gov is the U.S. government's official web portal to all federal, state and local government web resources and services.